カタログに戻る

COSMOS 1275 DEB

運用中PO
NORAD 42205·DEBRIS·🇷🇺 Russia

打ち上げ Jun 4, 1981 から Plesetsk Cosmodrome

Loading…

次のパス (今後24時間)

TLE

経年Source: Space-Track

元期: Sep 7, 2026, 17:12 UTC

1 42205U 81053TV  26250.71685045  .00000693  00000-0  66088-3 0  9990
2 42205  83.0316 252.7528 0113616 110.1658 251.1763 13.76345911640080

AllMySatでCOSMOS 1275 DEBをリアルタイム追跡

Download on the App Store